Regional Weather Roundup
Issued by NWS

Home | Current Version | Previous Version | Text Only | Print | Product List | Glossary On
Versions: 1 2 3 4 5 6 7 8 9 10 11 12 13 14 15 16 17 18 19 20 21 22 23 24 25 26 27 28 29 30 31 32 33 34 35 36 37 38 39 40 41 42 43 44 45 46 47 48 49 50
000
ASUS45 KBOU 250407
RWRCO

WEATHER ROUNDUP FOR COLORADO
NATIONAL WEATHER SERVICE DENVER/BOULDER CO
900 PM MST SAT JAN 24 2015

NOTE: "FAIR" INDICATES FEW OR NO CLOUDS BELOW 12000 FEET WITH NO
SIGNIFICANT WEATHER AND/OR OBSTRUCTIONS TO VISIBILITY.

COZ001>005-013-030-031-250500-
...NORTHWEST COLORADO...

CITY           SKY/WX    TMP DP  RH WIND       PRES   REMARKS
CRAIG          CLOUDY    27  20  75 CALM      30.35R
HAYDEN         CLOUDY    25  14  63 CALM      30.34R
MEEKER         CLOUDY    23  16  74 CALM      30.35R
MOUNT WERNER   NOT AVBL
STEAMBOAT SPGS CLOUDY    22  16  75 CALM      30.32S
WALDEN         CLOUDY    32  21  64 W16G23    30.25S WCI  21
$$

COZ006>008-011-250500-
...WEST CENTRAL VALLEYS...

CITY           SKY/WX    TMP DP  RH WIND       PRES   REMARKS
GRAND JUNCTION PTCLDY    26  18  71 E3        30.37R
MONTROSE       PTCLDY    23  14  68 SE7       30.38R WCI  15
EAGLE          CLOUDY    27  18  69 CALM      30.38R
RIFLE          PTCLDY    25  18  74 SE5       30.38R WCI  19
DELTA          PTCLDY    31  15  50 CALM      30.38R
NUCLA          PTCLDY    30  16  55 E5        30.37R WCI  25
$$

COZ017>023-064>068-250500-
...SOUTHWEST COLORADO...

CITY           SKY/WX    TMP DP  RH WIND       PRES   REMARKS
DURANGO        CLEAR     25  18  74 N5        30.25F WCI  19
CORTEZ         CLEAR     26  16  65 S28G71    30.27S WCI  10
PAGOSA SPRINGS CLEAR     21  15  78 CALM      30.27S
TELLURIDE      PTCLDY    31  10  42 SE6       30.35S WCI  25
WOLF CREEK PAS NOT AVBL
$$

COZ009-010-012-014-032>034-037-058>063-250500-
...CENTRAL COLORADO...

CITY           SKY/WX    TMP DP  RH WIND       PRES   REMARKS
ASPEN          CLOUDY    27  17  66 NW3       30.33R
BUENA VISTA    PTCLDY    38  19  47 NW16G25   30.21R
COPPER MTN     LGT SNOW  25  19  80 W32       30.29R WCI   7
BERTHOUD PASS  SNOW      16  10  79 NW49      30.20S VSB 1/2 WCI  -9
COTTONWOOD PAS PTCLDY    36  18  48 W15G26    30.24R
GUNNISON       PTCLDY     1  -8  66 CALM      30.38R
KREMMLING      CLOUDY    19   9  63 CALM      30.35R
LEADVILLE      CLOUDY    28  14  55 N14       30.30S WCI  17
MONARCH PASS   PTCLDY    16   9  73 MISG      30.38R
SALIDA         PTCLDY    40  15  36 W12       30.29R
SUNLIGHT       CLOUDY    28  19  69 CALM      30.34F
WILKERSON PASS PTCLDY    23  18  80 N18G32    30.25R WCI   9
$$

COZ069>075-250500-
...SAN LUIS VALLEY/SANGRE DE CRISTO MOUNTAINS...

CITY           SKY/WX    TMP DP  RH WIND       PRES   REMARKS
ALAMOSA        CLOUDY    17  11  77 CALM      30.26S
LA VETA PASS   NOT AVBL
SAGUACHE       PTCLDY    18   9  68 E6        30.28R WCI   9
$$

COZ035-036-038>040-250500-
...NORTHERN COLORADO FRONT RANGE...

CITY           SKY/WX    TMP DP  RH WIND       PRES   REMARKS
DENVER INTL AP PTCLDY    43  21  41 W5        30.11R
DMNS CITY PARK   N/A     46  20  35 W14       30.11S
AURORA         PTCLDY    43  22  43 NW10      30.12R
FRONT RANGE AP NOT AVBL
ERIE MUNI ARPT CLEAR     42  21  43 W8        30.10R
BOULDER MUN AP CLEAR     48  21  34 W18       30.09R
CENTENNIAL     PTCLDY    43  23  45 NW15      30.12R
BROOMFIELD     MOCLDY    45  21  39 W13G18    30.11R
FORT COLLINS   CLEAR     43  23  45 N7        30.11R
LONGMONT       CLEAR     36  22  56 NE6       30.11R
$$

COZ041-046-047-076>085-087-088-250500-
...PIKES PEAK/PALMER DIVIDE AND SOUTHERN FOOTHILLS...

CITY           SKY/WX    TMP DP  RH WIND       PRES   REMARKS
COLO. SPRINGS  PTCLDY    42  23  46 N15       30.11R
A. F. ACADEMY  PTCLDY    33  20  60 N8        30.12R WCI  26
ELLICOTT       PTCLDY   N/A N/A N/A N13       30.09R
FALCON         PTCLDY    39  22  50 N14       30.12S
FORT CARSON    PTCLDY    35  20  53 N10       30.08R WCI  28
LIMON          CLOUDY    40  25  55 N16       30.10R
MONUMENT HILL  MOCLDY    36  23  60 NW14      30.13R
TRINIDAD       CLOUDY    35  23  61 W8        30.08R WCI  29
$$

COZ042>045-048>051-090-091-250500-
...NORTHEAST COLORADO...

CITY           SKY/WX    TMP DP  RH WIND       PRES   REMARKS
GREELEY ARPT   CLOUDY    41  25  52 NE18      30.11R
AKRON          CLOUDY    37  32  82 NW28G39   30.10R
BURLINGTON     CLOUDY    43  30  60 N28G38    30.06R
WRAY           CLOUDY    42  32  66 NW23G35   30.01F
STERLING       CLOUDY    41  36  81 NW30G41   30.08S
HOLYOKE        CLOUDY    43  30  61 NW23G33   30.00R
FORT MORGAN    CLOUDY    38  31  75 N29G36    30.13S
$$

COZ086-089-092>099-250500-
...SOUTHEAST COLORADO...

CITY           SKY/WX    TMP DP  RH WIND       PRES   REMARKS
PUEBLO         MOCLDY    37  26  64 N12       30.07R
LA JUNTA       CLOUDY    43  28  55 NW6       30.07R
LAMAR          CLOUDY    35  31  85 SW3       30.04R
SPRINGFIELD      N/A     33  27  78 W14       30.05R WCI  23
$$



USA.gov is the U.S. government's official web portal to all federal, state and local government web resources and services.